Temperature
22 21 21 20 20 20 22 23 24 24 24 25 25 24 23 22 22 21 20 21 21 20 20 20 20 20 20 20 20 20 20 20 19 19 19 19 19 19 19 19 19 18 18 18 18 18 18 18 18
22 21 21 20 20 21 23 24 24 24 25 25 25 24 22 21 21 21 20 21 21 21 20 20 20 20 20 20 20 20 20 19 19 19 19 19 19 19 19 19 18 18 18 18 18 18 18 18 18
22 21 21 19 21 22 24 24 24 25 25 25 24 23 22 21 21 21 21 21 21 21 20 20 20 20 20 20 20 20 20 19 19 19 19 19 19 19 18 18 18 18 18 18 18 18 18 18 18
22 21 21 20 23 23 24 24 24 25 25 25 24 22 22 21 22 22 22 21 21 21 20 20 20 20 20 20 20 20 19 19 19 19 19 19 19 19 18 18 18 18 18 18 18 18 18 18 17
22 21 20 20 22 23 24 25 25 25 25 24 23 22 21 21 22 23 22 21 21 21 20 20 20 20 20 20 20 20 19 19 19 19 19 19 18 18 18 18 18 18 18 18 18 18 18 18 18
22 19 20 21 23 24 25 26 25 25 24 24 23 21 20 21 22 22 22 21 21 21 20 20 20 20 20 20 20 20 19 19 19 19 19 18 18 18 18 18 18 18 18 18 18 18 18 17 17
21 19 21 22 23 24 26 26 25 24 24 24 23 20 19 20 21 22 21 21 21 21 20 20 20 20 20 20 20 19 19 19 19 19 19 18 18 18 18 18 18 18 18 18 18 17 17 17 17
23 19 21 21 23 24 26 26 26 25 24 24 24 21 20 20 21 21 21 21 20 20 20 20 20 20 20 19 19 19 19 19 19 18 18 18 18 18 18 18 18 18 18 18 18 17 17 17 17
23 19 20 22 23 24 26 25 26 26 25 24 24 24 24 22 21 20 20 20 20 20 20 20 20 20 20 19 19 19 19 19 18 18 18 18 18 18 18 18 18 18 18 17 17 17 17 17 17
22 20 22 23 24 25 25 25 26 25 24 23 23 23 23 21 21 20 20 20 20 20 19 20 20 20 19 19 19 19 19 18 18 18 18 18 18 18 18 18 18 18 18 17 17 17 17 17 17
21 21 23 24 26 26 25 25 26 24 23 24 23 23 22 21 21 21 21 21 21 20 20 20 20 20 19 19 19 19 19 19 18 18 18 18 18 18 18 18 18 18 17 17 17 17 17 17 17
22 23 24 25 26 26 26 26 25 25 26 27 26 25 23 21 21 21 21 21 21 20 20 20 20 19 19 19 19 19 19 19 19 18 18 18 18 18 18 18 18 18 18 17 17 17 17 17 17
23 24 25 26 26 26 26 25 25 25 26 26 25 24 23 22 21 21 21 21 21 21 21 20 20 19 19 19 19 19 19 19 19 19 18 18 18 18 18 18 18 18 18 18 17 17 17 17 17
24 24 25 25 26 26 25 25 25 25 25 25 24 23 22 22 21 21 20 21 21 21 21 20 20 20 19 19 19 19 19 19 19 19 18 18 18 18 18 18 18 18 18 18 17 17 17 17 17
24 24 24 24 25 26 25 25 24 25 24 23 22 22 22 22 22 21 21 21 21 21 21 20 20 20 19 19 19 19 19 19 19 19 18 18 18 18 18 18 18 18 18 17 17 17 17 17 17
23 23 23 24 24 25 25 25 24 24 23 22 21 21 21 21 21 22 21 21 21 21 20 20 20 20 20 19 19 19 19 19 19 18 18 18 18 18 18 18 18 18 17 17 17 17 17 17 17
21 22 23 24 24 25 25 24 23 23 23 22 21 21 21 21 21 21 21 21 21 21 20 20 20 20 20 19 19 19 19 19 18 18 18 18 18 18 18 18 18 17 17 17 17 17 17 17 17
21 22 23 23 24 24 23 23 22 22 22 22 21 21 21 21 21 21 21 20 20 20 20 20 19 19 19 19 19 18 18 18 18 18 18 18 18 18 18 17 17 17 17 17 17 17 17 17 17
22 23 22 23 24 24 23 22 22 22 22 21 21 21 21 21 21 21 21 20 20 20 20 19 19 19 19 18 18 18 18 18 18 18 18 18 17 17 17 17 17 17 17 17 17 17 17 17 17
22 22 22 22 24 24 22 22 21 21 21 21 21 21 21 21 21 21 21 21 20 20 20 19 19 19 19 18 18 18 18 18 18 18 18 17 17 17 17 17 17 17 17 17 17 17 17 17 17
22 21 22 23 23 23 23 22 21 21 21 21 21 21 21 21 21 21 21 21 20 20 20 19 19 19 18 18 18 17 17 17 17 17 17 17 17 17 17 17 17 17 17 17 17 17 17 17 17
21 22 22 23 22 21 22 21 21 20 20 20 20 20 20 21 21 21 21 20 20 20 20 19 19 18 18 18 18 18 18 18 18 18 18 17 17 17 17 17 17 17 17 17 17 17 17 17 17
22 23 23 23 22 21 20 21 20 20 20 20 19 20 20 21 21 21 21 21 20 20 20 19 19 18 18 18 18 18 18 18 18 18 17 17 17 17 17 17 17 17 17 17 17 17 17 17 17
23 22 20 18 18 20 20 20 20 19 20 20 19 20 20 20 21 20 20 20 20 20 19 19 18 18 18 18 18 18 18 18 18 18 17 17 17 17 17 17 17 17 17 17 17 17 17 17 17
22 20 19 20 18 19 19 20 19 20 20 20 19 20 20 20 20 20 20 20 20 19 19 19 18 18 18 18 17 18 17 17 17 17 17 17 17 17 17 17 17 17 17 17 17 17 17 17 16
21 20 19 20 20 19 19 19 20 20 20 20 20 20 20 20 20 20 20 20 19 19 19 18 18 18 18 18 17 17 17 17 17 17 17 17 17 17 17 17 17 17 17 17 17 17 17 17 16
20 19 19 18 19 19 19 19 19 20 20 19 19 20 19 20 20 20 20 19 19 19 19 19 18 18 18 18 17 17 17 17 17 17 17 17 17 17 17 17 17 17 17 17 17 17 17 16 16
21 18 17 17 18 19 20 20 19 20 20 19 18 19 19 20 20 20 20 20 20 19 19 19 18 18 18 18 17 17 17 17 17 17 17 17 17 17 17 17 17 17 17 17 17 17 16 16 16
20 19 17 16 17 18 19 19 20 19 19 19 19 19 19 20 20 20 20 20 20 19 19 19 18 18 18 18 17 17 17 17 17 17 17 17 17 17 17 17 17 17 17 17 17 16 16 16 16
21 19 17 19 18 17 18 19 20 19 18 18 19 19 20 20 20 20 20 20 20 19 19 19 18 18 18 18 17 17 17 17 17 17 17 17 16 17 17 17 17 17 17 16 16 16 16 16 16
Wind_Speed
6 4 2 1 3 5 2 3 1 1 1 1 5 5 6 4 3 3 4 13 17 16 16 20 20 19 19 19 19 19 19 18 18 18 17 17 16 16 15 15 15 15 15 15 15 16 16 17 17
4 3 1 2 4 3 3 2 0 0 3 4 5 5 5 3 4 8 8 12 18 16 16 18 21 20 19 19 18 18 18 18 17 17 16 16 16 15 15 14 14 15 15 15 15 16 16 16 16
3 2 3 4 3 3 2 2 1 1 2 2 4 4 4 5 7 8 8 16 16 13 15 19 22 20 19 19 18 18 17 17 16 16 15 15 15 14 14 14 14 14 15 15 15 15 15 15 15
2 3 4 4 0 4 4 3 3 3 1 3 5 5 4 3 7 8 16 18 17 13 14 19 22 21 20 19 18 17 17 16 16 15 15 14 14 14 14 14 14 15 15 15 15 15 15 14 14
3 4 5 3 4 4 4 4 5 3 1 3 4 5 3 4 9 17 18 17 16 12 12 18 21 21 20 19 18 17 16 15 15 15 14 14 13 14 14 13 14 14 14 14 14 14 13 13 12
4 4 4 2 5 4 3 4 4 3 3 3 4 4 2 4 12 16 16 14 14 13 11 16 21 20 20 19 18 17 16 16 15 14 14 13 13 13 13 13 13 13 13 13 13 13 12 12 11
4 4 2 2 4 4 1 3 4 4 4 4 6 5 3 5 9 13 13 12 11 11 9 11 16 18 19 19 18 17 16 15 15 14 14 13 13 13 13 12 12 12 13 12 12 12 11 10 10
5 4 1 2 3 4 1 2 2 4 3 4 5 8 7 9 12 12 12 11 11 10 8 7 11 13 14 16 17 17 16 15 15 14 14 13 13 13 12 11 11 12 12 12 11 11 10 9 9
4 4 1 4 4 4 1 1 1 2 5 3 2 4 7 19 18 15 13 10 11 11 8 7 8 9 11 12 16 16 16 15 15 14 14 12 10 11 10 10 11 11 11 11 10 10 9 8 8
4 3 6 5 5 3 2 3 4 4 3 2 3 6 16 20 19 19 18 17 15 14 11 8 9 8 10 12 12 11 12 12 12 11 11 10 9 9 9 9 10 10 10 9 9 8 7 6 6
6 6 5 5 6 4 3 2 4 8 6 9 9 15 21 20 18 18 18 17 16 14 13 10 9 8 8 6 8 8 8 9 10 10 11 10 9 7 6 6 6 7 7 6 6 5 5 5 5
5 6 6 5 3 3 4 4 4 8 10 7 13 20 22 21 20 19 18 16 13 14 14 12 10 8 7 6 6 7 6 7 7 10 11 10 6 4 4 4 4 4 5 5 4 4 4 4 4
5 5 5 7 7 5 4 5 5 7 4 8 15 19 20 19 16 13 13 13 13 14 14 13 12 11 8 6 6 7 6 7 8 9 11 11 7 4 4 3 4 4 4 4 3 3 3 3 3
4 5 7 7 4 3 4 2 3 5 6 12 16 17 17 17 15 12 12 13 14 15 14 14 14 12 9 8 6 6 7 8 9 9 11 11 9 6 5 4 4 4 4 4 4 3 3 2 2
3 5 7 4 2 1 4 1 5 3 10 12 14 15 14 13 13 14 15 14 14 13 13 13 13 11 11 10 9 7 8 9 8 9 11 11 10 8 6 4 4 4 5 4 4 3 3 2 2
3 3 4 6 4 1 4 6 6 5 11 11 12 13 12 11 12 12 12 11 11 10 11 12 13 13 11 9 8 6 8 9 8 9 10 11 11 10 7 5 4 5 5 4 3 2 2 2 2
5 1 2 6 3 1 2 6 5 5 10 11 11 11 12 10 10 11 11 11 10 11 11 12 12 13 12 9 7 6 7 7 8 9 9 10 12 12 9 6 5 6 5 4 4 2 2 2 2
3 1 3 5 4 3 2 5 5 4 8 9 8 9 10 12 12 10 10 10 10 10 10 11 10 10 10 8 6 5 5 5 7 8 9 11 11 12 10 6 6 6 4 4 3 3 2 2 2
4 2 5 7 5 2 3 5 4 3 5 6 7 9 10 10 7 7 8 10 10 11 11 12 11 10 9 8 8 7 7 6 5 6 10 11 11 11 10 6 5 6 5 5 5 3 3 2 2
4 4 6 7 3 1 2 4 3 2 4 6 7 9 9 7 7 8 9 10 11 11 11 11 11 11 11 9 8 5 5 5 5 5 7 12 12 12 10 8 6 6 5 5 5 4 3 2 2
5 6 6 6 5 4 2 5 4 2 0 1 3 5 6 9 9 9 9 9 9 11 12 11 11 11 11 10 6 6 5 4 5 6 6 8 12 12 10 9 8 7 7 6 6 6 6 4 2
6 8 7 4 1 3 1 2 6 3 3 3 4 4 5 6 7 8 9 9 9 10 9 8 10 11 12 12 11 11 9 8 7 7 6 6 9 10 11 10 9 8 6 7 7 6 4 5 3
8 4 4 2 3 0 2 2 7 3 4 6 6 5 5 5 6 8 9 9 7 7 8 8 9 9 9 10 11 11 8 7 5 6 8 8 7 8 10 10 9 8 7 7 7 6 5 4 4
5 5 6 6 5 1 3 3 6 5 6 5 5 5 5 4 5 6 6 6 6 6 7 7 8 8 9 10 10 10 10 8 8 8 9 7 5 6 8 9 8 8 7 7 7 7 7 5 4
5 6 4 4 3 5 3 3 8 8 6 6 5 5 5 4 6 7 7 7 7 7 7 8 8 8 9 10 10 10 10 10 11 10 9 8 6 5 8 8 7 7 7 7 7 7 7 6 6
7 10 8 5 5 4 2 5 7 5 4 3 3 4 3 4 5 7 7 7 7 8 8 9 9 8 8 9 9 9 9 8 7 8 8 8 7 7 7 8 8 8 8 7 7 6 6 6 6
8 6 8 7 3 0 5 7 8 2 3 2 1 2 3 4 5 6 7 7 8 8 9 9 9 8 8 8 8 8 8 7 7 7 7 6 6 6 7 8 8 8 8 8 7 6 6 6 6
7 10 7 7 6 3 4 5 5 6 4 2 2 2 3 4 5 6 7 7 7 7 6 7 7 7 7 7 7 7 7 7 7 6 7 7 7 7 8 8 8 8 8 8 7 5 5 6 5
5 5 6 6 6 7 4 7 6 7 5 4 4 3 4 5 6 6 6 6 6 6 6 6 5 5 5 6 6 6 6 7 6 6 7 7 7 8 8 8 8 8 8 7 6 6 7 7 6
6 7 8 6 4 5 5 7 4 3 3 3 3 2 2 3 4 5 5 5 5 6 5 5 5 5 5 5 5 6 6 6 7 6 6 7 7 7 8 7 7 8 7 7 8 8 7 7 7
Wind_Direction
183 161 151 136 61 50 13 306 229 99 102 136 133 131 131 131 172 179 128 139 137 144 151 151 147 143 137 133 131 129 129 128 128 128 128 128 128 127 125 124 122 120 118 116 115 114 114 114 114
141 153 145 58 73 57 320 287 121 183 148 112 102 98 94 87 84 113 132 142 141 145 148 150 149 146 141 138 135 134 133 132 131 130 130 130 131 130 129 126 124 122 120 119 117 116 116 117 116
149 161 89 66 85 160 247 266 157 83 123 119 97 73 93 126 131 139 148 142 139 143 147 154 151 149 145 142 140 138 137 136 134 134 133 133 132 132 130 129 128 125 123 122 121 119 119 119 119
124 61 57 64 11 233 224 217 168 140 51 56 98 82 72 99 144 143 141 144 142 144 149 157 154 152 149 147 144 142 141 140 139 138 137 136 136 134 132 131 129 128 126 124 123 121 121 123 124
66 75 53 23 291 263 228 209 175 160 117 73 99 98 59 22 116 134 142 147 147 146 151 159 157 155 153 151 149 147 146 144 144 142 141 141 140 136 133 133 131 129 128 127 126 125 125 126 127
58 65 70 335 296 288 239 187 161 157 138 113 107 98 52 107 131 142 145 146 148 150 151 160 160 159 157 155 154 153 151 150 149 147 146 145 142 138 137 137 135 133 132 131 130 129 128 126 126
106 97 140 251 294 308 244 159 160 159 153 157 132 113 111 143 143 140 139 138 143 148 149 156 161 162 162 160 159 158 157 156 154 152 151 150 146 143 142 142 140 138 137 135 134 132 130 127 127
129 104 74 274 265 289 290 117 135 147 154 126 128 147 172 168 143 133 130 134 143 150 153 152 155 158 160 163 164 163 162 162 160 157 156 154 152 149 147 145 145 144 142 140 139 136 133 130 130
105 78 227 235 219 263 272 99 107 125 122 132 138 162 161 145 143 140 140 144 156 163 161 155 151 151 155 161 169 168 168 168 164 163 162 155 147 147 148 151 152 149 147 145 143 142 137 131 130
109 155 227 225 214 240 257 194 172 133 142 158 89 98 131 146 153 157 162 167 171 173 174 166 160 155 157 168 167 164 166 166 162 160 154 144 141 147 151 160 159 156 153 150 147 143 134 121 118
167 202 237 249 238 241 249 222 167 152 204 208 179 152 150 157 164 169 174 177 177 174 175 176 169 163 164 159 156 155 155 156 155 155 148 144 142 146 146 152 155 153 151 140 133 126 118 120 123
196 242 238 266 262 233 222 196 178 192 220 199 163 155 159 168 176 178 179 179 174 173 178 175 172 170 168 160 158 156 156 157 157 158 156 150 146 144 146 146 143 133 133 128 122 121 120 126 136
225 265 268 264 278 242 218 212 206 229 228 132 141 154 168 176 182 183 179 176 175 179 180 176 175 180 174 167 168 168 166 167 165 163 166 164 161 162 160 160 157 153 148 144 140 138 137 137 149
247 266 289 290 277 230 186 231 184 242 140 138 151 165 175 178 179 178 179 181 183 185 183 179 179 182 177 179 176 171 172 171 169 171 176 176 175 172 169 169 172 176 174 167 160 156 144 142 154
292 308 322 313 297 250 134 281 234 203 143 150 164 171 175 181 183 188 190 189 186 185 181 181 183 182 184 183 182 176 176 175 176 180 183 184 184 181 178 178 186 191 184 168 147 140 131 139 146
17 21 332 309 334 339 135 252 265 161 152 164 172 175 178 187 191 195 194 191 185 180 181 182 188 188 190 188 183 179 179 178 182 185 187 189 190 188 184 187 195 190 177 162 150 143 135 141 147
29 27 289 308 334 26 140 257 282 168 163 175 179 181 183 191 198 199 196 190 183 180 182 182 188 189 191 189 183 180 175 176 182 188 190 191 194 192 190 192 193 180 167 165 169 147 146 155 157
221 243 294 290 309 349 297 267 280 190 174 184 183 183 190 200 208 199 194 188 179 177 180 187 192 189 185 179 176 173 176 180 182 188 191 190 193 194 190 190 185 175 167 169 164 147 129 132 146
176 224 277 274 286 314 288 284 290 211 184 192 196 195 200 206 201 188 186 179 180 180 179 185 190 191 181 179 185 187 193 188 192 194 190 188 192 193 187 188 178 178 180 178 168 147 136 119 124
199 259 280 296 339 293 292 303 311 206 197 199 201 207 205 191 188 184 177 178 184 184 184 188 189 186 186 187 186 182 179 185 199 199 190 189 191 193 192 183 181 180 172 165 168 151 137 129 141
219 214 242 268 338 5 13 337 327 317 0 204 206 209 201 190 192 189 186 185 185 186 187 190 189 185 185 177 171 168 163 161 179 192 193 194 192 191 188 186 182 179 176 179 179 169 153 152 154
242 224 217 247 339 301 27 289 292 296 294 254 236 220 216 206 192 190 185 186 194 193 185 184 187 185 183 174 179 180 188 192 191 188 191 186 189 188 187 184 182 180 178 177 181 174 162 151 163
215 209 197 221 173 278 358 167 283 317 273 256 243 233 224 212 196 189 190 192 192 178 174 180 183 185 180 178 184 186 193 193 175 173 180 185 188 188 187 184 182 181 182 180 177 168 169 167 166
180 80 56 51 83 190 253 175 270 250 236 258 247 232 226 210 192 182 177 167 167 163 162 167 175 181 178 183 188 190 191 183 173 179 184 186 186 186 186 184 182 182 183 182 182 176 176 177 168
125 101 37 6 21 245 266 199 249 253 240 235 243 242 231 198 183 176 172 172 172 169 168 169 176 186 187 189 195 194 193 188 188 185 186 184 187 190 190 184 180 180 185 182 174 175 179 178 177
168 145 159 186 212 266 315 237 255 264 266 258 240 228 206 191 184 182 178 176 177 176 173 176 188 192 190 194 198 191 187 189 193 188 184 187 191 190 180 178 180 181 182 182 174 176 183 181 185
140 166 160 132 140 70 285 287 302 282 307 301 239 191 184 187 177 178 175 174 177 180 180 182 188 191 192 194 191 186 185 187 186 182 182 182 179 178 174 177 181 183 181 177 172 180 185 181 190
142 142 110 126 147 213 282 279 261 275 265 262 218 201 190 181 178 179 181 182 180 180 175 174 181 188 187 186 188 188 187 188 182 179 183 183 182 178 173 181 184 182 180 178 177 179 183 184 192
110 108 111 118 148 155 217 265 234 230 230 230 235 217 194 191 189 182 180 178 171 164 164 170 174 175 177 182 186 181 182 180 178 186 190 187 184 180 181 184 182 182 181 178 179 186 189 193 200
146 154 144 148 188 168 170 258 290 224 226 217 238 242 205 200 191 177 169 161 161 164 166 167 168 174 180 177 177 180 177 172 177 186 188 184 184 184 184 181 180 183 181 178 183 193 195 198 205
Height
1485 1484 1485 1486 1489 1497 1497 1489 1482 1481 1481 1480 1482 1483 1485 1489 1493 1497 1493 1495 1500 1504 1508 1512 1516 1519 1521 1523 1525 1527 1529 1530 1532 1534 1535 1537 1538 1539 1541 1542 1543 1544 1545 1547 1548 1548 1549 1550 1551
1485 1485 1487 1487 1494 1507 1499 1486 1483 1481 1480 1481 1483 1484 1486 1488 1488 1489 1491 1496 1501 1505 1509 1513 1517 1519 1522 1524 1526 1528 1530 1532 1534 1535 1537 1539 1540 1541 1542 1544 1545 1546 1547 1548 1549 1550 1551 1553 1554
1485 1486 1488 1489 1497 1502 1495 1484 1482 1480 1481 1481 1483 1485 1486 1488 1489 1490 1493 1497 1503 1507 1510 1514 1517 1520 1523 1525 1527 1529 1531 1533 1535 1537 1539 1540 1542 1543 1544 1545 1547 1548 1549 1550 1551 1553 1554 1555 1556
1486 1487 1489 1494 1496 1491 1486 1482 1480 1481 1482 1482 1483 1486 1488 1490 1490 1492 1495 1499 1503 1507 1511 1515 1518 1521 1524 1526 1528 1531 1533 1535 1537 1539 1540 1542 1543 1545 1546 1547 1548 1550 1551 1552 1553 1555 1556 1557 1559
1486 1487 1493 1500 1495 1486 1480 1479 1480 1481 1482 1483 1484 1487 1489 1491 1492 1494 1496 1500 1504 1508 1512 1516 1519 1522 1525 1527 1529 1532 1534 1536 1538 1540 1542 1543 1545 1546 1547 1549 1550 1551 1553 1554 1556 1557 1558 1560 1561
1487 1489 1502 1504 1494 1483 1479 1478 1480 1481 1482 1483 1485 1487 1490 1491 1493 1496 1498 1502 1506 1510 1513 1517 1520 1523 1525 1528 1530 1533 1535 1537 1539 1541 1543 1544 1546 1548 1549 1550 1552 1553 1554 1556 1558 1559 1560 1562 1563
1489 1493 1499 1498 1494 1486 1479 1478 1479 1481 1481 1483 1484 1487 1490 1492 1494 1497 1500 1504 1508 1511 1514 1517 1520 1523 1526 1529 1531 1533 1536 1538 1540 1542 1544 1546 1547 1549 1550 1552 1553 1555 1556 1558 1559 1561 1562 1564 1565
1487 1493 1497 1497 1494 1487 1479 1479 1480 1481 1482 1483 1484 1486 1488 1490 1493 1497 1501 1505 1508 1512 1515 1518 1521 1524 1526 1529 1532 1534 1536 1539 1541 1543 1545 1547 1549 1550 1552 1553 1555 1556 1558 1559 1561 1563 1564 1566 1567
1487 1497 1501 1494 1490 1485 1479 1479 1480 1481 1482 1483 1483 1484 1485 1488 1492 1496 1501 1505 1508 1511 1515 1518 1521 1524 1527 1529 1532 1535 1537 1539 1541 1544 1546 1548 1549 1551 1553 1554 1556 1558 1559 1561 1563 1564 1566 1567 1569
1487 1498 1492 1484 1481 1480 1478 1478 1479 1481 1482 1482 1483 1483 1485 1488 1491 1494 1498 1502 1505 1509 1513 1517 1520 1523 1526 1529 1532 1535 1537 1540 1542 1544 1546 1548 1550 1552 1554 1555 1557 1559 1561 1562 1564 1566 1567 1569 1570
1485 1488 1483 1479 1478 1477 1477 1477 1478 1479 1482 1478 1478 1480 1483 1487 1490 1493 1496 1499 1503 1507 1511 1515 1519 1523 1526 1529 1531 1534 1537 1539 1542 1544 1546 1548 1551 1552 1554 1556 1558 1559 1561 1563 1565 1567 1568 1570 1571
1483 1480 1479 1477 1475 1475 1475 1475 1476 1476 1474 1474 1476 1478 1482 1485 1487 1490 1494 1498 1502 1506 1510 1514 1518 1522 1525 1528 1531 1534 1536 1539 1541 1544 1546 1549 1551 1553 1555 1557 1558 1560 1562 1564 1566 1567 1569 1570 1572
1481 1478 1476 1474 1474 1473 1472 1473 1473 1472 1473 1474 1476 1479 1481 1484 1487 1491 1495 1498 1501 1504 1508 1512 1516 1520 1524 1527 1530 1533 1536 1539 1541 1544 1546 1549 1551 1553 1555 1557 1559 1561 1562 1564 1566 1568 1570 1571 1572
1478 1476 1474 1472 1471 1471 1471 1472 1472 1470 1472 1473 1475 1478 1481 1484 1487 1491 1494 1496 1500 1503 1507 1510 1514 1518 1522 1526 1529 1532 1535 1538 1540 1543 1546 1549 1551 1553 1555 1557 1559 1561 1563 1565 1567 1568 1570 1571 1573
1476 1477 1474 1471 1470 1470 1471 1475 1471 1469 1470 1473 1475 1478 1481 1484 1486 1488 1491 1495 1498 1501 1505 1508 1513 1517 1521 1524 1528 1531 1534 1537 1539 1542 1545 1548 1551 1553 1556 1557 1559 1561 1563 1565 1566 1568 1570 1571 1573
1477 1481 1484 1474 1470 1469 1475 1480 1469 1469 1470 1472 1475 1478 1480 1483 1484 1487 1491 1494 1497 1500 1503 1507 1511 1515 1519 1522 1526 1529 1532 1536 1538 1541 1545 1547 1550 1553 1555 1557 1559 1561 1563 1564 1566 1568 1569 1571 1572
1487 1491 1488 1479 1471 1471 1474 1477 1469 1468 1469 1471 1474 1477 1479 1481 1483 1485 1489 1492 1495 1499 1502 1505 1509 1512 1516 1520 1525 1528 1531 1534 1537 1540 1543 1546 1549 1552 1554 1556 1558 1560 1562 1564 1565 1567 1569 1570 1571
1493 1490 1488 1484 1474 1472 1475 1475 1468 1468 1469 1471 1473 1476 1477 1478 1480 1484 1487 1491 1494 1497 1501 1504 1507 1510 1514 1518 1522 1526 1529 1533 1536 1538 1541 1544 1547 1550 1553 1555 1557 1559 1561 1563 1564 1566 1568 1569 1571
1483 1486 1488 1481 1473 1474 1476 1475 1470 1468 1469 1471 1472 1473 1474 1476 1479 1483 1485 1489 1491 1494 1496 1499 1503 1507 1510 1514 1518 1522 1525 1529 1533 1536 1539 1542 1545 1548 1551 1553 1555 1558 1560 1561 1563 1565 1566 1568 1569
1482 1486 1486 1479 1472 1473 1476 1475 1470 1468 1468 1469 1470 1471 1472 1474 1476 1479 1481 1484 1487 1489 1492 1495 1498 1502 1506 1509 1514 1519 1523 1526 1530 1533 1536 1539 1542 1545 1548 1551 1553 1556 1558 1560 1562 1563 1565 1566 1568
1481 1484 1483 1482 1476 1474 1477 1480 1474 1469 1469 1469 1469 1469 1470 1471 1473 1476 1478 1481 1483 1486 1488 1491 1494 1498 1502 1506 1511 1516 1520 1522 1526 1529 1532 1536 1539 1542 1545 1548 1551 1553 1556 1558 1560 1561 1563 1565 1566
1483 1473 1475 1477 1485 1491 1484 1497 1479 1473 1471 1468 1467 1468 1468 1469 1471 1473 1475 1478 1480 1482 1485 1488 1492 1495 1499 1503 1507 1511 1513 1516 1520 1524 1528 1532 1536 1539 1542 1545 1548 1551 1553 1555 1557 1559 1561 1563 1564
1472 1467 1471 1475 1483 1491 1489 1495 1488 1475 1472 1468 1466 1466 1466 1467 1468 1470 1473 1475 1477 1480 1483 1486 1489 1493 1496 1499 1503 1507 1510 1513 1517 1521 1524 1529 1532 1536 1539 1542 1545 1548 1550 1552 1555 1557 1559 1561 1562
1463 1470 1477 1486 1492 1502 1492 1496 1492 1479 1470 1465 1463 1463 1464 1465 1467 1469 1471 1474 1476 1478 1481 1484 1487 1490 1492 1495 1499 1503 1506 1510 1513 1516 1520 1524 1528 1532 1535 1538 1541 1544 1547 1549 1552 1554 1556 1558 1560
1465 1483 1502 1502 1511 1507 1492 1493 1489 1467 1463 1461 1461 1461 1461 1463 1465 1467 1469 1471 1474 1476 1479 1482 1484 1487 1490 1492 1496 1499 1503 1506 1509 1513 1517 1520 1524 1527 1531 1535 1538 1541 1544 1546 1549 1551 1553 1555 1557
1466 1476 1500 1509 1511 1505 1493 1493 1477 1462 1460 1459 1459 1459 1460 1462 1464 1466 1468 1470 1472 1475 1478 1480 1482 1485 1487 1490 1493 1496 1499 1502 1505 1509 1513 1517 1520 1524 1528 1531 1535 1538 1541 1543 1546 1548 1550 1553 1555
1467 1474 1474 1494 1499 1504 1498 1487 1471 1460 1459 1458 1458 1458 1459 1460 1463 1465 1467 1469 1471 1474 1476 1478 1480 1483 1485 1488 1490 1493 1496 1499 1502 1506 1509 1513 1517 1520 1524 1528 1531 1535 1537 1540 1543 1545 1547 1549 1551
1454 1465 1481 1494 1507 1508 1497 1490 1483 1465 1461 1459 1458 1458 1458 1460 1462 1464 1466 1468 1470 1473 1475 1477 1479 1481 1483 1485 1488 1490 1493 1496 1499 1502 1506 1509 1513 1517 1521 1525 1528 1531 1534 1537 1539 1541 1544 1546 1548
1460 1467 1477 1489 1491 1505 1506 1493 1464 1461 1458 1458 1457 1458 1458 1460 1461 1462 1465 1467 1469 1471 1473 1475 1477 1479 1481 1484 1486 1488 1490 1493 1496 1499 1503 1506 1510 1513 1517 1521 1524 1527 1530 1533 1536 1538 1540 1542 1544
1450 1459 1470 1483 1490 1494 1497 1488 1456 1456 1456 1456 1457 1457 1458 1459 1460 1462 1464 1466 1468 1470 1472 1474 1476 1478 1480 1482 1484 1486 1488 1491 1493 1497 1500 1503 1506 1510 1514 1518 1521 1524 1527 1529 1532 1534 1536 1538 1540